Pineville, WV

5:33 AM EDT on July 25, 2017 (GMT -0400)
Pineville

Weather History for KI16 - March, 2013

Change the Weather History Date:

Sunday, March 17, 2013

  Actual Average (KBKW) Record (KBKW)
Temperature  
Mean Temperature 48 °F -  
Max Temperature 54 °F 49 °F 80 °F (1927)
Min Temperature 43 °F 29 °F 7 °F (1900)
Degree Days  
Heating Degree Days 16    
Moisture  
Dew Point 44 °F    
Average Humidity 92    
Maximum Humidity 100    
Minimum Humidity 82    
Precipitation  
Precipitation 0.00 in - - ()
Sea Level Pressure  
Sea Level Pressure 30.04 in    
Wind  
Wind Speed - (North)    
Max Wind Speed -    
Max Gust Speed -    
Visibility 7 miles    
Events Rain    
Averages and records for this station are not official NWS values.
T = Trace of Precipitation, MM = Missing Value Source: NWS Daily Summary

Daily Weather History Graph

Daily Weather History Graph

Search for Another Location

Airport or City:

Trip Planner

Search our weather history database for the weather conditions in past years. The results will help you decide how hot, cold, wet, or windy it might be!

Date:

Astronomy

Mar. 17, 2013 Rise Set
Actual Time 7:33 AM EDT 7:35 PM EDT
Civil Twilight 7:07 AM EDT 8:01 PM EDT
Nautical Twilight 6:37 AM EDT 8:32 PM EDT
Astronomical Twilight 6:06 AM EDT 9:03 PM EDT
Moon 10:52 AM EDT (3/17) 12:36 AM EDT (3/17)
Length of Visible Light 12h 53m
Length of Day
12h 01m
Waxing Crescent, 31% of the Moon is Illuminated
Mar 17
Waxing Crescent
Mar 19
First Quarter
Mar 27
Full
Apr 3
Last Quarter
Apr 10
New

Hourly Weather History & Observations

Time (EDT) Temp. Dew Point Humidity Pressure Visibility Wind Dir Wind Speed Gust Speed Precip Events Conditions
12:15 AM 54.3 °F 49.1 °F 83% 29.98 in 10.0 mi North - - N/A   Mostly Cloudy
12:35 AM 53.6 °F 48.2 °F 82% 29.97 in 10.0 mi North - - N/A   Overcast
12:55 AM 52.5 °F 47.5 °F 83% 29.97 in 10.0 mi North - - N/A   Mostly Cloudy
1:15 AM 50.2 °F 46.8 °F 88% 29.97 in 10.0 mi North - - N/A   Mostly Cloudy
1:35 AM 47.5 °F 45.9 °F 94% 29.97 in 7.0 mi North - - N/A   Scattered Clouds
1:55 AM 46.4 °F 45.5 °F 97% 29.98 in 7.0 mi North - - N/A   Scattered Clouds
2:15 AM 45.5 °F 44.8 °F 97% 29.98 in 5.0 mi North - - N/A   Scattered Clouds
2:35 AM 44.6 °F 44.1 °F 98% 29.98 in 5.0 mi North - - N/A   Mostly Cloudy
2:55 AM 44.6 °F 44.4 °F 99% 29.99 in 5.0 mi North - - N/A   Mostly Cloudy
3:15 AM 43.9 °F 43.5 °F 99% 29.99 in 4.0 mi North - - N/A   Scattered Clouds
3:35 AM 44.4 °F 44.4 °F 100% 29.98 in 5.0 mi North - - N/A   Mostly Cloudy
3:55 AM 44.2 °F 44.2 °F 100% 29.98 in 5.0 mi North - - N/A   Mostly Cloudy
4:15 AM 44.6 °F 44.6 °F 100% 29.98 in 5.0 mi North - - N/A   Mostly Cloudy
4:35 AM 45.0 °F 44.8 °F 99% 29.98 in 5.0 mi North - - N/A   Mostly Cloudy
4:55 AM 45.3 °F 45.0 °F 99% 29.98 in 5.0 mi North - - N/A   Overcast
5:15 AM 45.1 °F 44.6 °F 98% 29.98 in 5.0 mi North - - N/A   Overcast
5:55 AM 45.5 °F 45.1 °F 99% 29.99 in 5.0 mi North - - N/A   Overcast
6:35 AM 45.9 °F 45.5 °F 99% 30.00 in 5.0 mi North - - N/A   Overcast
6:55 AM 45.9 °F 45.7 °F 99% 30.01 in 3.0 mi North - - N/A Rain Light Rain
7:15 AM 45.7 °F 45.7 °F 100% 30.04 in 2.0 mi North - - N/A Rain Rain
7:35 AM 45.7 °F 45.7 °F 100% 30.05 in 1.8 mi North - - N/A Rain Light Rain
7:55 AM 45.9 °F 45.9 °F 100% 30.06 in 1.8 mi North - - N/A Rain Light Rain
8:15 AM 45.7 °F 45.7 °F 100% 30.07 in 0.8 mi North - - N/A Rain Light Rain
8:35 AM 46.2 °F 46.2 °F 100% 30.07 in 1.2 mi North - - N/A   Light Drizzle
8:55 AM 45.9 °F 45.9 °F 100% 30.08 in 2.0 mi North - - N/A Rain Rain
9:15 AM 45.7 °F 45.7 °F 100% 30.08 in 2.5 mi North - - N/A Rain Rain
9:35 AM 45.9 °F 45.9 °F 100% 30.09 in 2.5 mi North - - N/A   Light Drizzle
9:55 AM 45.7 °F 45.5 °F 99% 30.09 in 3.0 mi North - - N/A   Overcast
10:15 AM 45.9 °F 45.5 °F 99% 30.09 in 4.0 mi North - - N/A   Overcast
10:35 AM 46.4 °F 45.5 °F 97% 30.09 in 4.0 mi North - - N/A   Overcast
10:55 AM 46.4 °F 45.0 °F 95% 30.10 in 5.0 mi North - - N/A   Overcast
11:15 AM 46.4 °F 44.8 °F 94% 30.10 in 5.0 mi North - - N/A   Overcast
11:35 AM 47.1 °F 45.0 °F 92% 30.10 in 7.0 mi North - - N/A   Overcast
11:55 AM 46.9 °F 44.6 °F 92% 30.10 in 7.0 mi North - - N/A   Overcast
12:15 PM 47.7 °F 44.4 °F 89% 30.09 in 7.0 mi North - - N/A   Overcast
12:35 PM 47.8 °F 44.6 °F 89% 30.08 in 10.0 mi North - - N/A   Overcast
12:55 PM 48.2 °F 44.8 °F 88% 30.08 in 10.0 mi North - - N/A   Overcast
1:15 PM 47.7 °F 43.9 °F 87% 30.08 in 10.0 mi North - - N/A   Overcast
1:35 PM 47.5 °F 43.9 °F 87% 30.08 in 10.0 mi North - - N/A   Overcast
2:15 PM 47.3 °F 43.2 °F 86% 30.06 in 10.0 mi North - - N/A   Overcast
2:35 PM 47.5 °F 43.3 °F 86% 30.06 in 10.0 mi North - - N/A   Overcast
2:55 PM 47.3 °F 42.6 °F 84% 30.06 in 10.0 mi North - - N/A   Overcast
3:15 PM 47.3 °F 42.8 °F 84% 30.04 in 10.0 mi North - - N/A   Overcast
3:35 PM 47.3 °F 42.8 °F 84% 30.03 in 10.0 mi North - - N/A   Overcast
3:55 PM 48.2 °F 42.8 °F 82% 30.03 in 10.0 mi North - - N/A   Overcast
4:15 PM 47.8 °F 42.8 °F 83% 30.03 in 10.0 mi North - - N/A   Overcast
4:35 PM 48.0 °F 42.8 °F 82% 30.03 in 10.0 mi North - - N/A   Overcast
4:55 PM 47.7 °F 42.8 °F 83% 30.03 in 10.0 mi North - - N/A   Overcast
5:15 PM 47.3 °F 42.1 °F 82% 30.03 in 10.0 mi North - - N/A   Overcast
5:35 PM 46.8 °F 41.9 °F 83% 30.03 in 10.0 mi North - - N/A   Overcast
5:55 PM 46.6 °F 41.9 °F 84% 30.04 in 10.0 mi North - - N/A   Overcast
6:15 PM 46.4 °F 41.5 °F 83% 30.04 in 10.0 mi North - - N/A   Overcast
6:35 PM 46.4 °F 41.9 °F 84% 30.04 in 10.0 mi North - - N/A   Overcast
6:55 PM 46.4 °F 41.9 °F 84% 30.05 in 10.0 mi North - - N/A   Overcast
7:15 PM 45.7 °F 42.1 °F 87% 30.05 in 10.0 mi North - - N/A   Light Drizzle
7:35 PM 45.9 °F 42.4 °F 88% 30.05 in 10.0 mi North - - N/A   Overcast
7:55 PM 45.5 °F 42.8 °F 90% 30.04 in 7.0 mi North - - N/A Rain Rain
8:15 PM 45.0 °F 43.2 °F 93% 30.04 in 7.0 mi North - - N/A Rain Light Rain
8:35 PM 44.8 °F 43.7 °F 96% 30.05 in 5.0 mi North - - N/A Rain Light Rain
8:55 PM 44.8 °F 43.9 °F 97% 30.03 in 5.0 mi North - - N/A Rain Light Rain
9:15 PM 45.3 °F 44.4 °F 97% 30.04 in 7.0 mi North - - N/A   Drizzle
9:35 PM 45.5 °F 44.6 °F 97% 30.04 in 10.0 mi North - - N/A Rain Rain
9:55 PM 45.9 °F 44.6 °F 95% 30.05 in 10.0 mi North - - N/A   Light Drizzle
10:15 PM 46.0 °F 44.2 °F 93% 30.04 in 10.0 mi North - - N/A   Overcast
10:35 PM 46.0 °F 43.2 °F 90% 30.04 in 10.0 mi North - - N/A Rain Light Rain
10:55 PM 45.7 °F 42.4 °F 88% 30.05 in 10.0 mi North - - N/A   Overcast
11:15 PM 45.5 °F 41.9 °F 87% 30.05 in 10.0 mi North - - N/A   Overcast
11:35 PM 45.5 °F 41.4 °F 85% 30.05 in 10.0 mi North - - N/A   Overcast
11:55 PM 45.5 °F 40.8 °F 84% 30.04 in 10.0 mi North - - N/A   Overcast